GW5966 Weather Reports


time (UTC)temp
C
wind
direction
speed
KPH
gust
KPH
rain 1hr
cm
rain 24hr
cm
rain mn
cm
humidity
%
barometer
mb
20260510164516 22 352 3.2 8.0 0.00 0.00 0.00 79 1014.6
20260510163020 22 352 0.0 3.2 0.00 0.00 0.00 82 1014.7
20260510161523 21 17 0.0 0.0 0.00 0.00 0.00 86 1014.8
20260510160027 21 17 0.0 0.0 0.00 0.00 0.00 86 1014.9
20260510154511 21 17 0.0 0.0 0.00 0.00 0.00 86 1015.1
20260510153017 20 17 0.0 0.0 0.00 0.00 0.00 87 1015.0
20260510151520 20 17 0.0 0.0 0.00 0.00 0.00 90 1014.9
20260510150026 20 17 0.0 0.0 0.00 0.00 0.00 92 1014.9
20260510144528 19 17 0.0 0.0 0.00 0.00 0.00 92 1014.9
20260510143019 18 18 0.0 0.0 0.00 0.00 0.00 94 1014.9
20260510141520 18 17 0.0 0.0 0.00 0.00 0.00 95 1014.9
20260510140020 18 17 0.0 0.0 0.00 0.00 0.00 96 1014.9
20260510134524 17 17 0.0 0.0 0.00 0.00 0.00 96 1014.8
20260510133028 17 17 0.0 0.0 0.00 0.00 0.00 96 1014.6
20260510131512 17 17 0.0 0.0 0.00 0.00 0.00 96 1014.5
20260510130018 17 17 0.0 0.0 0.00 0.00 0.00 96 1014.6
20260510124520 16 17 0.0 0.0 0.00 0.00 0.00 96 1014.4
20260510123026 16 18 0.0 0.0 0.00 0.00 0.00 96 1014.1
20260510121528 16 17 0.0 0.0 0.00 0.00 0.00 96 1013.9
20260510120025 16 17 0.0 0.0 0.00 0.00 0.00 96 1013.6
20260510114520 16 129 0.0 0.0 0.00 0.00 0.00 96 1013.5
20260510113027 16 129 0.0 0.0 0.00 0.00 0.00 96 1013.2
20260510111508 15 129 0.0 0.0 0.00 0.00 0.00 96 1012.9
20260510110026 15 129 0.0 0.0 0.00 0.00 0.00 96 1012.7
20260510104515 15 129 0.0 0.0 0.00 0.00 0.00 96 1012.4
20260510103021 15 129 0.0 0.0 0.00 0.00 0.00 96 1012.0
20260510101503 15 129 0.0 0.0 0.00 0.00 0.00 96 1011.9
20260510100006 15 129 0.0 0.0 0.00 0.00 0.00 95 1011.7
20260510094513 15 129 0.0 0.0 0.00 0.00 0.00 95 1011.5
20260510093027 15 129 0.0 0.0 0.00 0.00 0.00 95 1011.4
20260510091523 15 129 0.0 0.0 0.00 0.00 0.00 95 1011.2
20260510090004 15 129 0.0 0.0 0.00 0.00 0.00 95 1011.0
20260510084507 15 129 0.0 0.0 0.00 0.00 0.00 95 1010.9
20260510083013 15 129 0.0 0.0 0.00 0.00 0.00 95 1010.7
20260510081518 15 129 0.0 0.0 0.00 0.00 0.00 95 1010.6
20260510080020 15 129 0.0 0.0 0.00 0.00 0.00 95 1010.6
20260510074504 15 129 0.0 0.0 0.00 0.05 0.00 95 1010.5
20260510073010 15 129 0.0 0.0 0.00 0.36 0.00 95 1010.4
20260510071517 15 129 0.0 0.0 0.00 0.51 0.00 95 1010.3
20260510070018 16 129 0.0 0.0 0.00 0.51 0.00 95 1010.4
20260510064528 16 129 0.0 0.0 0.00 0.51 0.00 95 1010.6
20260510063026 16 129 0.0 0.0 0.00 0.51 0.00 95 1010.7
20260510061510 16 129 0.0 0.0 0.00 0.51 0.00 95 1010.8
20260510060016 16 129 0.0 0.0 0.00 0.51 0.00 95 1010.8
20260510054523 17 129 0.0 0.0 0.00 0.51 0.00 95 1010.9
20260510053022 17 129 0.0 0.0 0.00 0.51 0.00 95 1010.9
20260510051527 17 129 0.0 0.0 0.00 0.51 0.00 95 1011.1
20260510050010 17 129 0.0 0.0 0.00 0.51 0.00 95 1011.3
20260510044524 17 129 0.0 0.0 0.00 0.51 0.51 95 1011.3
20260510043022 17 129 0.0 0.0 0.00 0.51 0.51 94 1011.1
20260510041523 17 129 0.0 0.0 0.00 0.51 0.51 94 1011.2
20260510040025 17 129 0.0 0.0 0.00 0.51 0.51 94 1011.4
20260510034512 17 129 0.0 0.0 0.00 0.51 0.51 94 1011.5
20260510033016 17 129 0.0 0.0 0.00 0.51 0.51 94 1011.6
20260510031523 18 129 0.0 0.0 0.00 0.51 0.51 94 1011.5
20260510030035 18 129 0.0 0.0 0.00 0.51 0.51 93 1011.6
20260510024526 18 129 0.0 0.0 0.00 0.51 0.51 93 1011.5
20260510023012 18 129 0.0 0.0 0.00 0.51 0.51 93 1011.0
20260510021516 19 129 0.0 0.0 0.00 0.51 0.51 93 1010.9
20260510020026 19 129 0.0 0.0 0.00 0.51 0.51 93 1010.7
20260510014507 20 129 0.0 0.0 0.00 0.51 0.51 92 1010.5
20260510013009 20 129 0.0 0.0 0.00 0.51 0.51 92 1010.1
20260510011515 20 129 0.0 0.0 0.00 0.51 0.51 92 1009.8
20260510010018 20 129 0.0 0.0 0.00 0.51 0.51 91 1009.5
20260510004522 20 129 0.0 0.0 0.00 0.51 0.51 91 1009.1
20260510003019 20 129 0.0 0.0 0.00 0.51 0.51 90 1008.9
20260510001511 20 129 0.0 0.0 0.00 0.51 0.51 89 1008.6
20260510000018 21 129 0.0 0.0 0.00 0.51 0.51 90 1008.6
20260509234521 21 129 0.0 0.0 0.00 0.51 0.51 90 1008.5
20260509233026 21 129 0.0 0.0 0.00 0.51 0.51 89 1008.6
20260509231524 21 129 0.0 0.0 0.00 0.51 0.51 87 1008.1
20260509230017 21 129 0.0 0.0 0.00 0.51 0.51 87 1008.4
20260509224516 22 129 0.0 0.0 0.00 0.51 0.51 85 1008.2
20260509223022 22 129 0.0 0.0 0.00 0.51 0.51 82 1008.1
20260509221528 22 129 0.0 0.0 0.00 0.51 0.51 82 1008.0
20260509220029 23 129 0.0 0.0 0.00 0.51 0.51 80 1007.8
20260509214516 23 129 0.0 0.0 0.00 0.51 0.51 74 1007.7
20260509213020 23 129 0.0 0.0 0.00 0.51 0.51 78 1007.6
20260509211527 23 129 0.0 0.0 0.00 0.51 0.51 72 1007.4
20260509210023 23 129 0.0 0.0 0.00 0.51 0.51 80 1007.4
20260509204525 24 129 0.0 0.0 0.00 0.51 0.51 76 1007.4
20260509203022 23 129 0.0 0.0 0.00 0.51 0.51 71 1007.6
20260509201520 24 129 0.0 0.0 0.00 0.51 0.51 73 1007.8
20260509200022 24 129 0.0 0.0 0.00 0.51 0.51 73 1008.2
20260509194526 25 129 0.0 1.6 0.00 0.51 0.51 75 1008.0
20260509193031 25 129 1.6 1.6 0.00 0.51 0.51 66 1008.0
20260509191517 25 129 0.0 0.0 0.00 0.51 0.51 70 1008.4
20260509190022 26 129 0.0 1.6 0.00 0.51 0.51 72 1008.5
20260509184530 25 352 1.6 4.8 0.00 0.51 0.51 68 1008.6
20260509183025 24 352 3.2 4.8 0.00 0.51 0.51 69 1008.8
20260509181525 24 352 0.0 3.2 0.00 0.51 0.51 75 1008.9
20260509180019 23 352 1.6 3.2 0.00 0.51 0.51 76 1009.1
20260509174522 23 129 1.6 3.2 0.00 0.51 0.51 75 1009.5
20260509173022 22 127 0.0 3.2 0.00 0.51 0.51 78 1009.9
20260509171503 21 129 0.0 1.6 0.00 0.51 0.51 81 1009.9
20260509170004 21 129 0.0 1.6 0.00 0.51 0.51 86 1009.8